QPF
0.00 0.00 0.00 0.00 0.00 0.00 0.00 0.01 0.03 0.05 0.06 0.07 0.04 0.03 0.02 0.01 0.02 0.02 0.03 0.02 0.02 0.01 0.01 0.01 0.01 0.01 0.01 0.00 0.00 0.00 0.00 0.00 0.00 0.00 0.00 0.00 0.00 0.00 0.00 0.00 0.00 0.00 0.01 0.00 0.00 0.00 0.00 0.00 0.00
0.00 0.00 0.00 0.00 0.00 0.00 0.00 0.02 0.03 0.04 0.05 0.08 0.06 0.04 0.01 0.01 0.03 0.03 0.03 0.01 0.01 0.01 0.01 0.00 0.01 0.01 0.01 0.01 0.01 0.01 0.00 0.00 0.00 0.00 0.00 0.00 0.00 0.00 0.00 0.00 0.00 0.01 0.01 0.01 0.00 0.00 0.00 0.00 0.00
0.00 0.00 0.00 0.00 0.00 0.00 0.01 0.03 0.04 0.04 0.04 0.07 0.08 0.04 0.02 0.01 0.02 0.02 0.02 0.01 0.01 0.01 0.01 0.01 0.01 0.01 0.01 0.01 0.01 0.01 0.00 0.00 0.00 0.00 0.00 0.00 0.00 0.00 0.00 0.00 0.00 0.00 0.00 0.01 0.00 0.00 0.00 0.00 0.00
0.00 0.00 0.00 0.00 0.00 0.00 0.01 0.02 0.04 0.05 0.06 0.04 0.04 0.03 0.02 0.02 0.02 0.02 0.02 0.02 0.01 0.01 0.01 0.01 0.01 0.02 0.02 0.02 0.02 0.02 0.01 0.00 0.00 0.00 0.00 0.00 0.00 0.01 0.01 0.01 0.00 0.00 0.00 0.00 0.00 0.00 0.00 0.00 0.00
0.00 0.00 0.00 0.00 0.00 0.01 0.02 0.04 0.06 0.05 0.04 0.03 0.02 0.02 0.02 0.03 0.03 0.02 0.01 0.01 0.01 0.01 0.01 0.02 0.02 0.01 0.02 0.02 0.02 0.02 0.01 0.01 0.00 0.01 0.01 0.01 0.01 0.01 0.01 0.01 0.01 0.01 0.00 0.01 0.01 0.01 0.01 0.01 0.00
0.00 0.00 0.00 0.00 0.00 0.01 0.03 0.04 0.06 0.05 0.04 0.03 0.02 0.02 0.03 0.04 0.03 0.02 0.01 0.01 0.01 0.01 0.01 0.01 0.01 0.01 0.01 0.01 0.01 0.01 0.01 0.01 0.01 0.01 0.01 0.01 0.01 0.02 0.02 0.01 0.01 0.01 0.01 0.01 0.01 0.01 0.01 0.01 0.01
0.00 0.00 0.00 0.00 0.00 0.02 0.03 0.04 0.06 0.05 0.06 0.06 0.02 0.01 0.02 0.04 0.03 0.01 0.01 0.01 0.01 0.01 0.01 0.01 0.01 0.01 0.01 0.01 0.01 0.01 0.01 0.01 0.01 0.01 0.01 0.01 0.02 0.02 0.02 0.02 0.02 0.01 0.01 0.01 0.01 0.01 0.01 0.02 0.02
0.00 0.00 0.00 0.00 0.01 0.02 0.04 0.05 0.06 0.07 0.08 0.07 0.04 0.02 0.02 0.03 0.03 0.03 0.02 0.02 0.02 0.01 0.01 0.00 0.01 0.01 0.01 0.01 0.02 0.02 0.02 0.01 0.01 0.01 0.01 0.01 0.01 0.01 0.01 0.01 0.02 0.02 0.02 0.02 0.02 0.02 0.01 0.02 0.03
0.00 0.00 0.00 0.00 0.01 0.01 0.03 0.04 0.04 0.04 0.05 0.05 0.03 0.03 0.06 0.11 0.12 0.08 0.04 0.03 0.02 0.02 0.01 0.01 0.01 0.01 0.02 0.02 0.02 0.02 0.01 0.01 0.01 0.01 0.01 0.01 0.01 0.01 0.01 0.02 0.03 0.03 0.03 0.03 0.04 0.03 0.03 0.02 0.03
0.00 0.00 0.00 0.00 0.01 0.01 0.02 0.04 0.04 0.04 0.05 0.05 0.03 0.04 0.08 0.14 0.18 0.12 0.06 0.04 0.03 0.02 0.02 0.02 0.02 0.02 0.02 0.01 0.01 0.01 0.02 0.02 0.02 0.01 0.01 0.01 0.01 0.01 0.01 0.02 0.03 0.03 0.03 0.03 0.04 0.04 0.04 0.03 0.02
0.00 0.00 0.00 0.00 0.01 0.01 0.02 0.03 0.04 0.05 0.04 0.03 0.03 0.04 0.11 0.18 0.17 0.11 0.07 0.05 0.03 0.02 0.03 0.02 0.01 0.01 0.01 0.01 0.01 0.01 0.01 0.02 0.03 0.03 0.03 0.02 0.02 0.02 0.01 0.02 0.02 0.03 0.03 0.03 0.04 0.04 0.03 0.03 0.04
0.00 0.00 0.00 0.00 0.01 0.02 0.02 0.03 0.05 0.06 0.05 0.04 0.03 0.02 0.05 0.11 0.16 0.14 0.09 0.05 0.03 0.03 0.02 0.01 0.01 0.01 0.01 0.01 0.01 0.01 0.02 0.03 0.04 0.04 0.04 0.03 0.03 0.03 0.02 0.02 0.02 0.02 0.03 0.03 0.02 0.02 0.02 0.02 0.03
0.00 0.01 0.01 0.02 0.01 0.02 0.02 0.02 0.04 0.07 0.06 0.06 0.04 0.03 0.04 0.07 0.09 0.09 0.08 0.06 0.05 0.03 0.02 0.02 0.01 0.01 0.01 0.02 0.02 0.01 0.02 0.04 0.04 0.04 0.04 0.04 0.04 0.04 0.04 0.03 0.03 0.02 0.02 0.02 0.01 0.01 0.02 0.02 0.02
0.00 0.01 0.02 0.02 0.03 0.03 0.03 0.02 0.03 0.05 0.04 0.05 0.05 0.05 0.05 0.08 0.10 0.11 0.12 0.08 0.05 0.04 0.03 0.03 0.03 0.03 0.03 0.03 0.03 0.03 0.03 0.04 0.04 0.04 0.04 0.04 0.04 0.04 0.05 0.05 0.04 0.04 0.03 0.02 0.02 0.01 0.02 0.02 0.02
0.00 0.01 0.02 0.03 0.03 0.05 0.05 0.04 0.04 0.04 0.05 0.06 0.05 0.06 0.07 0.08 0.09 0.11 0.11 0.07 0.07 0.07 0.05 0.04 0.04 0.04 0.04 0.04 0.04 0.03 0.03 0.04 0.04 0.05 0.05 0.05 0.05 0.05 0.05 0.04 0.03 0.03 0.03 0.04 0.04 0.03 0.03 0.03 0.03
0.02 0.02 0.02 0.03 0.03 0.04 0.06 0.09 0.06 0.06 0.07 0.06 0.06 0.05 0.06 0.07 0.07 0.08 0.08 0.08 0.08 0.09 0.08 0.08 0.06 0.05 0.04 0.04 0.04 0.03 0.03 0.04 0.05 0.06 0.06 0.05 0.05 0.04 0.03 0.03 0.03 0.02 0.03 0.04 0.06 0.05 0.04 0.02 0.02
0.03 0.02 0.01 0.02 0.02 0.03 0.04 0.10 0.11 0.10 0.07 0.06 0.05 0.05 0.05 0.07 0.08 0.08 0.08 0.08 0.10 0.11 0.10 0.10 0.07 0.05 0.04 0.04 0.04 0.03 0.03 0.03 0.03 0.02 0.05 0.05 0.03 0.03 0.03 0.03 0.03 0.04 0.03 0.04 0.05 0.04 0.03 0.02 0.02
0.02 0.02 0.01 0.01 0.01 0.02 0.02 0.05 0.14 0.13 0.10 0.07 0.06 0.05 0.06 0.07 0.08 0.10 0.09 0.10 0.14 0.12 0.11 0.08 0.08 0.08 0.06 0.05 0.05 0.04 0.04 0.04 0.03 0.02 0.02 0.02 0.03 0.03 0.03 0.02 0.02 0.03 0.03 0.03 0.03 0.04 0.04 0.03 0.02
0.01 0.05 0.03 0.02 0.01 0.02 0.02 0.02 0.06 0.07 0.05 0.05 0.05 0.06 0.05 0.05 0.07 0.08 0.10 0.13 0.14 0.12 0.12 0.10 0.10 0.11 0.10 0.06 0.04 0.03 0.04 0.03 0.02 0.02 0.02 0.02 0.02 0.03 0.02 0.02 0.03 0.04 0.04 0.03 0.03 0.03 0.03 0.03 0.03
0.01 0.05 0.07 0.06 0.03 0.02 0.02 0.03 0.05 0.05 0.04 0.04 0.05 0.05 0.04 0.04 0.05 0.07 0.07 0.10 0.12 0.13 0.11 0.10 0.09 0.09 0.10 0.09 0.06 0.05 0.04 0.03 0.03 0.02 0.01 0.01 0.01 0.01 0.02 0.02 0.02 0.03 0.05 0.05 0.03 0.03 0.03 0.03 0.03
0.00 0.02 0.05 0.08 0.05 0.03 0.03 0.03 0.05 0.05 0.04 0.04 0.05 0.05 0.04 0.04 0.05 0.07 0.08 0.09 0.09 0.12 0.11 0.07 0.09 0.12 0.11 0.08 0.06 0.04 0.03 0.02 0.02 0.02 0.01 0.01 0.01 0.01 0.01 0.02 0.02 0.02 0.02 0.04 0.03 0.02 0.02 0.02 0.03
0.01 0.01 0.02 0.04 0.03 0.03 0.02 0.02 0.03 0.04 0.06 0.06 0.04 0.04 0.05 0.05 0.07 0.08 0.09 0.10 0.10 0.09 0.10 0.09 0.11 0.13 0.13 0.08 0.05 0.04 0.03 0.02 0.01 0.01 0.01 0.01 0.00 0.01 0.01 0.02 0.02 0.02 0.02 0.02 0.02 0.01 0.01 0.02 0.02
0.01 0.01 0.01 0.02 0.02 0.01 0.01 0.01 0.02 0.03 0.04 0.06 0.04 0.05 0.06 0.06 0.08 0.10 0.11 0.10 0.10 0.09 0.08 0.08 0.07 0.09 0.08 0.06 0.05 0.04 0.03 0.03 0.02 0.02 0.01 0.01 0.01 0.01 0.02 0.02 0.03 0.03 0.02 0.02 0.01 0.01 0.01 0.01 0.02
0.01 0.01 0.02 0.02 0.01 0.01 0.01 0.01 0.02 0.01 0.01 0.03 0.04 0.04 0.06 0.07 0.08 0.09 0.10 0.10 0.10 0.09 0.07 0.05 0.04 0.04 0.03 0.03 0.04 0.05 0.04 0.04 0.03 0.03 0.03 0.03 0.03 0.03 0.03 0.03 0.03 0.03 0.02 0.02 0.02 0.02 0.02 0.01 0.01
0.00 0.01 0.01 0.01 0.00 0.00 0.00 0.00 0.01 0.01 0.01 0.02 0.02 0.03 0.04 0.07 0.08 0.09 0.11 0.11 0.10 0.08 0.06 0.04 0.03 0.03 0.03 0.04 0.05 0.06 0.06 0.05 0.04 0.04 0.04 0.03 0.03 0.03 0.04 0.04 0.03 0.02 0.02 0.02 0.03 0.03 0.03 0.02 0.02
0.00 0.01 0.01 0.01 0.00 0.00 0.00 0.00 0.00 0.00 0.01 0.02 0.02 0.02 0.03 0.06 0.09 0.10 0.13 0.12 0.10 0.08 0.06 0.04 0.04 0.04 0.04 0.06 0.07 0.07 0.07 0.08 0.06 0.04 0.04 0.04 0.04 0.04 0.04 0.04 0.03 0.03 0.03 0.02 0.02 0.02 0.02 0.02 0.02
0.00 0.00 0.00 0.00 0.00 0.00 0.00 0.00 0.00 0.01 0.01 0.02 0.02 0.02 0.03 0.04 0.07 0.09 0.10 0.09 0.08 0.08 0.06 0.05 0.05 0.05 0.05 0.05 0.05 0.05 0.05 0.05 0.05 0.04 0.04 0.04 0.04 0.04 0.03 0.03 0.03 0.03 0.03 0.02 0.02 0.02 0.02 0.02 0.02
0.00 0.00 0.00 0.00 0.00 0.00 0.00 0.00 0.01 0.01 0.01 0.01 0.02 0.03 0.03 0.05 0.08 0.09 0.10 0.12 0.14 0.12 0.09 0.06 0.05 0.04 0.05 0.04 0.04 0.03 0.03 0.04 0.04 0.04 0.03 0.03 0.03 0.03 0.03 0.03 0.02 0.02 0.03 0.02 0.01 0.01 0.01 0.01 0.02
0.00 0.00 0.00 0.00 0.00 0.00 0.00 0.01 0.01 0.01 0.01 0.02 0.04 0.03 0.03 0.04 0.07 0.08 0.09 0.10 0.11 0.10 0.09 0.06 0.04 0.04 0.03 0.03 0.03 0.03 0.02 0.02 0.02 0.02 0.02 0.02 0.02 0.02 0.02 0.02 0.03 0.03 0.03 0.02 0.01 0.01 0.01 0.01 0.01
0.00 0.01 0.01 0.01 0.01 0.00 0.01 0.01 0.01 0.01 0.02 0.03 0.04 0.03 0.02 0.03 0.04 0.05 0.04 0.03 0.03 0.03 0.03 0.03 0.03 0.04 0.04 0.03 0.02 0.01 0.01 0.01 0.01 0.01 0.01 0.01 0.02 0.02 0.02 0.02 0.03 0.03 0.03 0.02 0.02 0.01 0.01 0.02 0.03
MSLP
1011.31 1012.21 1013.24 1014.21 1014.95 1015.38 1015.46 1015.26 1014.89 1014.50 1014.23 1014.15 1014.28 1014.56 1014.90 1015.18 1015.32 1015.25 1015.01 1014.66 1014.32 1014.08 1014.02 1014.17 1014.51 1014.97 1015.45 1015.89 1016.22 1016.43 1016.54 1016.61 1016.70 1016.83 1017.05 1017.32 1017.63 1017.93 1018.18 1018.36 1018.48 1018.55 1018.61 1018.67 1018.76 1018.87 1018.99 1019.10 1019.17
1011.83 1012.89 1013.99 1014.95 1015.60 1015.85 1015.71 1015.26 1014.64 1014.02 1013.55 1013.31 1013.33 1013.54 1013.85 1014.15 1014.34 1014.36 1014.23 1014.01 1013.80 1013.69 1013.75 1014.00 1014.43 1014.95 1015.49 1015.97 1016.35 1016.60 1016.77 1016.88 1017.00 1017.15 1017.37 1017.62 1017.89 1018.14 1018.34 1018.48 1018.56 1018.61 1018.66 1018.74 1018.85 1018.98 1019.11 1019.23 1019.30
1012.41 1013.55 1014.66 1015.54 1016.06 1016.13 1015.80 1015.15 1014.35 1013.58 1012.99 1012.66 1012.61 1012.79 1013.09 1013.40 1013.62 1013.71 1013.67 1013.56 1013.46 1013.46 1013.62 1013.95 1014.43 1014.99 1015.55 1016.05 1016.45 1016.73 1016.92 1017.07 1017.21 1017.39 1017.60 1017.84 1018.07 1018.28 1018.43 1018.52 1018.57 1018.61 1018.67 1018.76 1018.89 1019.04 1019.20 1019.32 1019.38
1012.99 1014.14 1015.18 1015.94 1016.30 1016.21 1015.73 1014.97 1014.08 1013.26 1012.64 1012.30 1012.24 1012.42 1012.72 1013.04 1013.29 1013.42 1013.44 1013.40 1013.39 1013.47 1013.69 1014.06 1014.56 1015.12 1015.67 1016.15 1016.53 1016.82 1017.02 1017.18 1017.35 1017.53 1017.75 1017.97 1018.18 1018.35 1018.46 1018.53 1018.56 1018.60 1018.66 1018.77 1018.93 1019.10 1019.26 1019.39 1019.45
1013.49 1014.57 1015.48 1016.09 1016.30 1016.09 1015.53 1014.73 1013.87 1013.10 1012.54 1012.26 1012.26 1012.46 1012.77 1013.10 1013.35 1013.49 1013.55 1013.55 1013.59 1013.71 1013.96 1014.34 1014.82 1015.34 1015.85 1016.28 1016.63 1016.89 1017.08 1017.25 1017.42 1017.62 1017.84 1018.06 1018.25 1018.40 1018.50 1018.55 1018.57 1018.62 1018.69 1018.82 1018.98 1019.17 1019.34 1019.46 1019.51
1013.85 1014.78 1015.53 1015.98 1016.05 1015.77 1015.21 1014.47 1013.72 1013.09 1012.67 1012.51 1012.59 1012.84 1013.17 1013.48 1013.72 1013.85 1013.91 1013.94 1013.99 1014.13 1014.39 1014.75 1015.19 1015.65 1016.09 1016.46 1016.74 1016.96 1017.14 1017.30 1017.48 1017.69 1017.91 1018.14 1018.33 1018.47 1018.56 1018.61 1018.64 1018.68 1018.77 1018.90 1019.07 1019.26 1019.42 1019.53 1019.57
1014.00 1014.77 1015.33 1015.62 1015.60 1015.30 1014.79 1014.19 1013.61 1013.17 1012.94 1012.93 1013.10 1013.39 1013.72 1014.02 1014.23 1014.34 1014.39 1014.42 1014.49 1014.64 1014.89 1015.22 1015.61 1016.01 1016.37 1016.66 1016.89 1017.06 1017.20 1017.36 1017.54 1017.76 1018.00 1018.23 1018.43 1018.58 1018.67 1018.71 1018.74 1018.79 1018.87 1019.00 1019.16 1019.34 1019.48 1019.57 1019.59
1013.97 1014.55 1014.94 1015.10 1015.02 1014.73 1014.33 1013.89 1013.52 1013.29 1013.24 1013.36 1013.62 1013.94 1014.26 1014.52 1014.70 1014.80 1014.84 1014.88 1014.97 1015.13 1015.38 1015.69 1016.04 1016.37 1016.65 1016.88 1017.04 1017.17 1017.29 1017.43 1017.62 1017.85 1018.10 1018.34 1018.55 1018.70 1018.79 1018.83 1018.85 1018.89 1018.96 1019.08 1019.22 1019.38 1019.50 1019.58 1019.58
1013.79 1014.21 1014.45 1014.50 1014.38 1014.15 1013.86 1013.59 1013.42 1013.38 1013.48 1013.71 1014.01 1014.34 1014.63 1014.86 1015.01 1015.09 1015.15 1015.22 1015.34 1015.53 1015.79 1016.09 1016.40 1016.68 1016.91 1017.07 1017.18 1017.27 1017.37 1017.51 1017.70 1017.93 1018.19 1018.44 1018.65 1018.79 1018.88 1018.92 1018.93 1018.95 1019.00 1019.09 1019.22 1019.35 1019.46 1019.52 1019.51
1013.57 1013.83 1013.95 1013.93 1013.81 1013.64 1013.47 1013.35 1013.33 1013.43 1013.63 1013.91 1014.22 1014.53 1014.79 1014.98 1015.11 1015.21 1015.30 1015.41 1015.59 1015.82 1016.11 1016.41 1016.70 1016.94 1017.11 1017.23 1017.30 1017.36 1017.44 1017.57 1017.75 1017.98 1018.24 1018.48 1018.69 1018.83 1018.91 1018.93 1018.93 1018.93 1018.96 1019.02 1019.12 1019.23 1019.33 1019.39 1019.39
1013.37 1013.53 1013.56 1013.51 1013.40 1013.29 1013.21 1013.21 1013.30 1013.47 1013.71 1013.99 1014.27 1014.53 1014.74 1014.91 1015.05 1015.17 1015.32 1015.51 1015.75 1016.03 1016.34 1016.65 1016.92 1017.13 1017.26 1017.34 1017.38 1017.41 1017.47 1017.59 1017.76 1017.98 1018.22 1018.45 1018.65 1018.77 1018.84 1018.85 1018.83 1018.81 1018.82 1018.86 1018.94 1019.04 1019.13 1019.20 1019.22
1013.29 1013.37 1013.36 1013.29 1013.21 1013.16 1013.16 1013.23 1013.36 1013.55 1013.78 1014.01 1014.23 1014.43 1014.61 1014.77 1014.92 1015.10 1015.32 1015.58 1015.89 1016.22 1016.55 1016.85 1017.10 1017.27 1017.37 1017.41 1017.41 1017.43 1017.47 1017.57 1017.72 1017.92 1018.14 1018.35 1018.52 1018.63 1018.68 1018.68 1018.65 1018.62 1018.61 1018.63 1018.70 1018.79 1018.89 1018.97 1019.01
1013.35 1013.39 1013.37 1013.31 1013.27 1013.27 1013.33 1013.43 1013.57 1013.73 1013.90 1014.06 1014.21 1014.36 1014.50 1014.67 1014.87 1015.11 1015.41 1015.74 1016.10 1016.46 1016.79 1017.07 1017.28 1017.40 1017.46 1017.46 1017.44 1017.43 1017.46 1017.53 1017.66 1017.84 1018.03 1018.21 1018.35 1018.44 1018.48 1018.47 1018.43 1018.39 1018.37 1018.39 1018.44 1018.53 1018.62 1018.72 1018.78
1013.53 1013.57 1013.56 1013.54 1013.56 1013.61 1013.70 1013.81 1013.93 1014.05 1014.14 1014.22 1014.31 1014.41 1014.55 1014.74 1014.99 1015.30 1015.66 1016.05 1016.44 1016.80 1017.10 1017.33 1017.48 1017.56 1017.57 1017.54 1017.50 1017.47 1017.48 1017.54 1017.64 1017.78 1017.93 1018.07 1018.19 1018.26 1018.29 1018.28 1018.24 1018.20 1018.18 1018.18 1018.22 1018.29 1018.38 1018.47 1018.55
1013.78 1013.83 1013.85 1013.90 1013.98 1014.09 1014.22 1014.34 1014.43 1014.49 1014.51 1014.52 1014.55 1014.62 1014.77 1015.00 1015.31 1015.69 1016.10 1016.52 1016.90 1017.23 1017.48 1017.65 1017.73 1017.75 1017.72 1017.67 1017.62 1017.59 1017.60 1017.64 1017.71 1017.81 1017.93 1018.03 1018.12 1018.17 1018.19 1018.18 1018.15 1018.11 1018.08 1018.07 1018.08 1018.13 1018.19 1018.26 1018.32
1014.00 1014.07 1014.16 1014.29 1014.45 1014.64 1014.81 1014.94 1015.00 1015.01 1014.97 1014.92 1014.91 1014.98 1015.15 1015.42 1015.79 1016.22 1016.66 1017.08 1017.44 1017.72 1017.90 1017.99 1018.01 1017.99 1017.94 1017.88 1017.85 1017.83 1017.84 1017.88 1017.93 1018.00 1018.07 1018.13 1018.19 1018.22 1018.23 1018.22 1018.19 1018.15 1018.11 1018.07 1018.05 1018.06 1018.08 1018.11 1018.13
1014.12 1014.23 1014.40 1014.63 1014.89 1015.16 1015.38 1015.53 1015.58 1015.54 1015.45 1015.37 1015.33 1015.40 1015.60 1015.91 1016.33 1016.79 1017.25 1017.66 1017.97 1018.19 1018.30 1018.32 1018.30 1018.25 1018.21 1018.18 1018.18 1018.20 1018.24 1018.28 1018.33 1018.36 1018.39 1018.41 1018.43 1018.43 1018.43 1018.42 1018.39 1018.34 1018.28 1018.21 1018.15 1018.09 1018.05 1018.02 1018.00
1014.09 1014.27 1014.54 1014.88 1015.26 1015.62 1015.90 1016.07 1016.11 1016.03 1015.89 1015.77 1015.71 1015.79 1016.00 1016.35 1016.80 1017.29 1017.76 1018.14 1018.42 1018.57 1018.63 1018.61 1018.56 1018.52 1018.51 1018.55 1018.61 1018.69 1018.77 1018.84 1018.87 1018.88 1018.87 1018.84 1018.82 1018.79 1018.77 1018.75 1018.71 1018.65 1018.57 1018.46 1018.35 1018.23 1018.12 1018.02 1017.93
1013.93 1014.19 1014.58 1015.05 1015.55 1016.01 1016.35 1016.53 1016.55 1016.43 1016.24 1016.07 1015.98 1016.05 1016.28 1016.65 1017.13 1017.64 1018.10 1018.47 1018.72 1018.84 1018.86 1018.83 1018.80 1018.79 1018.85 1018.96 1019.11 1019.26 1019.40 1019.49 1019.53 1019.51 1019.45 1019.38 1019.31 1019.25 1019.21 1019.16 1019.11 1019.04 1018.93 1018.79 1018.62 1018.44 1018.26 1018.09 1017.94
1013.69 1014.06 1014.58 1015.20 1015.82 1016.37 1016.75 1016.93 1016.91 1016.73 1016.47 1016.23 1016.11 1016.15 1016.37 1016.77 1017.26 1017.79 1018.27 1018.64 1018.88 1018.99 1019.01 1019.00 1019.00 1019.06 1019.19 1019.39 1019.63 1019.86 1020.05 1020.17 1020.21 1020.17 1020.07 1019.95 1019.84 1019.74 1019.66 1019.60 1019.54 1019.45 1019.32 1019.15 1018.94 1018.71 1018.47 1018.24 1018.04
1013.47 1013.97 1014.63 1015.39 1016.13 1016.74 1017.15 1017.31 1017.22 1016.95 1016.60 1016.28 1016.09 1016.09 1016.31 1016.71 1017.23 1017.79 1018.29 1018.68 1018.94 1019.07 1019.12 1019.14 1019.20 1019.32 1019.53 1019.81 1020.13 1020.43 1020.67 1020.81 1020.84 1020.78 1020.65 1020.48 1020.32 1020.19 1020.09 1020.01 1019.93 1019.83 1019.69 1019.50 1019.26 1018.99 1018.70 1018.43 1018.19
1013.36 1014.00 1014.81 1015.70 1016.53 1017.19 1017.59 1017.69 1017.51 1017.13 1016.67 1016.25 1015.99 1015.95 1016.15 1016.57 1017.12 1017.71 1018.26 1018.69 1018.99 1019.17 1019.26 1019.33 1019.43 1019.61 1019.88 1020.22 1020.59 1020.93 1021.19 1021.34 1021.36 1021.28 1021.11 1020.91 1020.72 1020.55 1020.42 1020.33 1020.24 1020.14 1019.99 1019.79 1019.53 1019.24 1018.93 1018.62 1018.35
1013.42 1014.21 1015.16 1016.15 1017.04 1017.71 1018.07 1018.09 1017.80 1017.30 1016.73 1016.21 1015.88 1015.80 1016.00 1016.43 1017.03 1017.68 1018.28 1018.78 1019.13 1019.36 1019.49 1019.60 1019.74 1019.95 1020.24 1020.60 1020.98 1021.33 1021.60 1021.74 1021.75 1021.64 1021.45 1021.22 1021.00 1020.81 1020.66 1020.56 1020.46 1020.35 1020.20 1019.99 1019.73 1019.42 1019.09 1018.77 1018.48
1013.68 1014.60 1015.66 1016.72 1017.64 1018.29 1018.58 1018.50 1018.10 1017.49 1016.81 1016.21 1015.83 1015.74 1015.94 1016.41 1017.06 1017.77 1018.45 1019.01 1019.42 1019.69 1019.86 1019.99 1020.13 1020.34 1020.62 1020.96 1021.32 1021.64 1021.88 1022.00 1021.99 1021.87 1021.66 1021.42 1021.18 1020.97 1020.81 1020.69 1020.58 1020.47 1020.31 1020.10 1019.83 1019.51 1019.17 1018.84 1018.53
1014.11 1015.13 1016.26 1017.35 1018.25 1018.85 1019.06 1018.88 1018.38 1017.68 1016.93 1016.29 1015.89 1015.81 1016.04 1016.56 1017.27 1018.05 1018.79 1019.41 1019.87 1020.18 1020.36 1020.49 1020.61 1020.77 1021.00 1021.29 1021.59 1021.87 1022.07 1022.16 1022.13 1022.00 1021.79 1021.54 1021.29 1021.07 1020.89 1020.75 1020.63 1020.49 1020.32 1020.10 1019.82 1019.49 1019.14 1018.79 1018.46
1014.64 1015.71 1016.85 1017.92 1018.77 1019.29 1019.42 1019.16 1018.59 1017.84 1017.07 1016.44 1016.07 1016.03 1016.32 1016.90 1017.67 1018.51 1019.30 1019.96 1020.45 1020.77 1020.95 1021.04 1021.11 1021.22 1021.37 1021.58 1021.81 1022.02 1022.18 1022.25 1022.21 1022.07 1021.86 1021.61 1021.36 1021.13 1020.93 1020.77 1020.61 1020.45 1020.25 1020.00 1019.70 1019.36 1018.99 1018.62 1018.26
1015.16 1016.22 1017.33 1018.33 1019.10 1019.54 1019.59 1019.28 1018.69 1017.95 1017.23 1016.66 1016.36 1016.39 1016.76 1017.40 1018.22 1019.09 1019.91 1020.59 1021.08 1021.39 1021.53 1021.58 1021.60 1021.62 1021.70 1021.82 1021.98 1022.13 1022.25 1022.29 1022.24 1022.11 1021.91 1021.67 1021.41 1021.17 1020.95 1020.74 1020.54 1020.33 1020.09 1019.80 1019.48 1019.11 1018.72 1018.33 1017.95
1015.58 1016.59 1017.61 1018.50 1019.17 1019.51 1019.51 1019.19 1018.64 1017.98 1017.36 1016.90 1016.72 1016.85 1017.30 1017.99 1018.84 1019.72 1020.54 1021.20 1021.66 1021.93 1022.04 1022.04 1021.99 1021.95 1021.95 1022.01 1022.10 1022.20 1022.28 1022.31 1022.27 1022.14 1021.96 1021.72 1021.46 1021.19 1020.93 1020.67 1020.41 1020.14 1019.85 1019.52 1019.16 1018.77 1018.36 1017.95 1017.55
1015.83 1016.73 1017.61 1018.37 1018.92 1019.19 1019.17 1018.89 1018.43 1017.91 1017.44 1017.15 1017.11 1017.36 1017.87 1018.60 1019.45 1020.31 1021.07 1021.68 1022.10 1022.32 1022.38 1022.33 1022.24 1022.16 1022.11 1022.12 1022.17 1022.24 1022.31 1022.33 1022.29 1022.18 1022.00 1021.76 1021.49 1021.19 1020.87 1020.55 1020.22 1019.88 1019.52 1019.15 1018.75 1018.34 1017.93 1017.51 1017.11
1015.90 1016.65 1017.37 1017.98 1018.41 1018.62 1018.61 1018.41 1018.09 1017.74 1017.47 1017.37 1017.49 1017.85 1018.42 1019.16 1019.97 1020.76 1021.45 1021.99 1022.33 1022.50 1022.53 1022.45 1022.34 1022.24 1022.17 1022.17 1022.20 1022.26 1022.32 1022.35 1022.31 1022.21 1022.03 1021.78 1021.48 1021.13 1020.76 1020.36 1019.96 1019.54 1019.12 1018.70 1018.28 1017.85 1017.44 1017.03 1016.64
Thickness
5793 5794 5792 5784 5762 5741 5741 5754 5767 5774 5779 5789 5791 5786 5777 5771 5765 5763 5782 5791 5789 5784 5780 5776 5774 5771 5769 5767 5765 5762 5760 5758 5756 5755 5753 5751 5750 5749 5747 5746 5745 5743 5742 5741 5740 5739 5738 5736 5735
5792 5792 5784 5768 5743 5728 5738 5757 5765 5774 5785 5791 5789 5784 5777 5773 5779 5779 5783 5787 5787 5783 5779 5775 5772 5769 5767 5765 5762 5760 5757 5755 5753 5751 5750 5748 5747 5745 5744 5743 5741 5740 5739 5738 5737 5736 5735 5733 5733
5790 5788 5770 5751 5736 5732 5746 5762 5769 5780 5788 5788 5781 5780 5775 5772 5777 5779 5783 5785 5783 5779 5776 5773 5770 5767 5764 5761 5759 5757 5754 5752 5750 5748 5746 5745 5743 5742 5740 5739 5738 5737 5736 5735 5733 5732 5732 5730 5730
5784 5773 5759 5742 5738 5745 5755 5766 5773 5777 5781 5784 5779 5771 5774 5780 5781 5781 5783 5781 5778 5776 5773 5770 5768 5764 5761 5758 5756 5753 5751 5749 5747 5744 5742 5741 5740 5738 5737 5736 5735 5733 5732 5731 5730 5729 5728 5727 5727
5775 5759 5742 5729 5738 5751 5762 5770 5776 5773 5774 5777 5775 5765 5766 5776 5782 5781 5779 5777 5774 5771 5769 5766 5764 5761 5758 5755 5752 5750 5748 5745 5743 5741 5739 5737 5736 5735 5734 5732 5731 5730 5729 5728 5726 5725 5725 5724 5723
5757 5747 5726 5723 5738 5753 5762 5771 5774 5771 5771 5773 5770 5763 5761 5772 5775 5775 5775 5772 5770 5767 5765 5762 5760 5757 5754 5752 5749 5747 5744 5742 5740 5738 5736 5734 5733 5731 5730 5729 5728 5726 5725 5724 5723 5722 5721 5721 5720
5749 5737 5728 5732 5738 5748 5762 5771 5770 5768 5766 5768 5771 5759 5758 5764 5769 5770 5769 5767 5764 5762 5760 5757 5755 5753 5751 5748 5746 5743 5741 5738 5736 5734 5732 5730 5728 5727 5726 5725 5724 5723 5722 5720 5719 5718 5717 5717 5716
5755 5739 5731 5731 5738 5746 5761 5767 5769 5768 5765 5772 5771 5757 5754 5761 5765 5764 5761 5760 5759 5757 5755 5753 5751 5749 5747 5744 5742 5739 5737 5734 5732 5730 5728 5726 5724 5723 5722 5721 5720 5719 5718 5717 5716 5715 5714 5714 5713
5756 5730 5723 5734 5741 5749 5760 5760 5765 5771 5767 5765 5767 5765 5765 5764 5761 5756 5753 5751 5751 5751 5750 5748 5746 5744 5742 5740 5737 5735 5733 5730 5727 5725 5724 5721 5720 5718 5717 5716 5715 5714 5714 5713 5712 5711 5710 5710 5710
5743 5724 5734 5747 5753 5754 5757 5758 5761 5761 5756 5754 5757 5761 5763 5759 5754 5750 5746 5744 5744 5744 5744 5743 5742 5740 5737 5735 5733 5731 5728 5726 5723 5721 5719 5717 5715 5713 5712 5711 5710 5709 5709 5708 5708 5707 5707 5706 5706
5743 5734 5744 5751 5757 5757 5754 5756 5760 5755 5748 5752 5753 5754 5755 5752 5748 5746 5744 5742 5741 5740 5739 5739 5737 5735 5732 5730 5728 5725 5723 5721 5718 5716 5714 5712 5710 5708 5707 5706 5705 5704 5704 5703 5703 5703 5702 5702 5701
5739 5742 5748 5751 5756 5755 5753 5753 5751 5751 5753 5760 5760 5757 5752 5748 5744 5742 5739 5738 5736 5735 5734 5733 5731 5730 5727 5725 5723 5720 5718 5716 5713 5711 5709 5707 5705 5703 5702 5701 5699 5699 5698 5697 5697 5697 5697 5697 5697
5736 5740 5746 5749 5750 5750 5750 5747 5746 5745 5752 5756 5755 5751 5747 5744 5741 5738 5736 5733 5732 5729 5728 5728 5726 5724 5722 5720 5718 5715 5712 5710 5708 5706 5704 5702 5700 5698 5696 5695 5694 5693 5692 5691 5691 5691 5692 5692 5692
5736 5738 5740 5743 5745 5747 5743 5741 5741 5740 5747 5747 5745 5741 5740 5737 5734 5731 5729 5727 5726 5724 5724 5723 5721 5719 5717 5715 5712 5710 5707 5704 5702 5700 5698 5696 5694 5692 5690 5688 5688 5687 5686 5685 5685 5685 5686 5686 5686
5735 5730 5731 5735 5738 5740 5740 5730 5733 5739 5741 5738 5737 5735 5733 5731 5729 5727 5726 5724 5723 5721 5719 5717 5716 5714 5711 5709 5707 5704 5701 5698 5696 5694 5692 5690 5688 5686 5684 5682 5681 5681 5680 5679 5678 5679 5679 5680 5680
5726 5717 5712 5725 5732 5735 5730 5717 5730 5736 5734 5730 5730 5729 5727 5725 5723 5723 5722 5720 5719 5717 5715 5712 5711 5708 5705 5703 5700 5697 5694 5692 5690 5687 5685 5683 5681 5679 5678 5676 5674 5674 5674 5673 5672 5671 5672 5672 5673
5706 5700 5705 5716 5727 5728 5723 5716 5725 5729 5728 5725 5725 5724 5723 5720 5719 5718 5718 5716 5713 5712 5710 5706 5704 5702 5699 5696 5694 5691 5688 5685 5683 5681 5678 5676 5675 5673 5671 5669 5667 5667 5667 5666 5665 5664 5664 5664 5665
5697 5699 5702 5706 5719 5720 5715 5714 5721 5723 5723 5721 5721 5720 5717 5715 5714 5714 5713 5711 5708 5706 5704 5701 5698 5695 5693 5690 5687 5683 5680 5678 5675 5673 5671 5669 5667 5666 5664 5662 5660 5660 5659 5658 5657 5656 5655 5655 5656
5708 5703 5700 5707 5719 5714 5709 5710 5714 5718 5717 5716 5715 5715 5713 5711 5709 5708 5707 5705 5703 5700 5697 5694 5691 5689 5687 5683 5680 5676 5672 5670 5668 5665 5664 5662 5660 5658 5656 5654 5653 5651 5650 5649 5648 5648 5647 5646 5647
5704 5699 5698 5706 5715 5711 5704 5705 5712 5715 5716 5716 5715 5713 5711 5707 5704 5702 5700 5699 5697 5694 5690 5688 5685 5683 5681 5677 5673 5670 5666 5662 5660 5658 5657 5655 5653 5651 5649 5646 5644 5642 5641 5640 5639 5638 5637 5636 5637
5702 5698 5700 5701 5705 5706 5701 5696 5703 5712 5714 5714 5714 5712 5709 5706 5702 5699 5696 5694 5691 5688 5685 5682 5678 5676 5673 5670 5667 5663 5659 5656 5653 5651 5649 5647 5645 5643 5640 5638 5636 5634 5632 5630 5630 5629 5628 5626 5626
5696 5709 5706 5702 5691 5683 5693 5677 5694 5701 5704 5707 5709 5708 5706 5704 5701 5697 5693 5689 5685 5682 5679 5675 5672 5670 5666 5663 5660 5657 5652 5647 5645 5642 5641 5639 5637 5635 5633 5630 5628 5626 5624 5622 5621 5619 5619 5618 5617
5705 5710 5704 5697 5686 5678 5681 5675 5683 5695 5696 5702 5705 5705 5703 5701 5698 5694 5690 5686 5681 5677 5673 5670 5667 5664 5660 5657 5654 5650 5645 5641 5638 5635 5633 5631 5629 5627 5625 5623 5620 5618 5616 5614 5612 5611 5611 5610 5609
5711 5702 5692 5681 5674 5665 5676 5672 5675 5686 5696 5701 5703 5702 5700 5698 5694 5689 5685 5680 5675 5671 5667 5663 5661 5657 5654 5650 5646 5643 5638 5634 5631 5627 5625 5622 5621 5619 5617 5615 5613 5610 5608 5606 5605 5604 5603 5602 5601
5703 5684 5664 5661 5652 5658 5674 5670 5676 5695 5700 5702 5701 5700 5697 5694 5689 5684 5679 5675 5670 5665 5661 5657 5654 5650 5647 5643 5639 5635 5632 5628 5624 5621 5618 5615 5613 5611 5610 5608 5605 5603 5602 5600 5598 5596 5595 5595 5594
5696 5687 5665 5654 5650 5655 5668 5667 5683 5698 5701 5702 5700 5697 5693 5687 5683 5679 5674 5669 5665 5659 5654 5651 5647 5644 5640 5636 5633 5629 5626 5622 5619 5615 5612 5609 5606 5604 5602 5600 5598 5596 5594 5592 5591 5589 5588 5587 5587
5694 5684 5685 5665 5658 5652 5659 5671 5686 5695 5694 5694 5693 5690 5686 5682 5678 5674 5669 5663 5659 5653 5648 5645 5641 5637 5633 5630 5626 5623 5619 5615 5612 5609 5606 5603 5600 5598 5595 5593 5591 5589 5587 5586 5584 5582 5581 5580 5580
5702 5687 5670 5661 5650 5647 5658 5665 5672 5684 5686 5687 5685 5682 5680 5676 5672 5668 5663 5658 5653 5648 5643 5638 5635 5630 5626 5623 5619 5616 5612 5609 5605 5602 5599 5596 5594 5591 5589 5586 5584 5582 5581 5579 5578 5576 5575 5575 5574
5691 5682 5671 5659 5659 5649 5645 5660 5686 5686 5686 5683 5681 5677 5674 5670 5665 5661 5657 5653 5648 5643 5637 5632 5628 5624 5620 5616 5613 5608 5604 5601 5598 5595 5592 5590 5587 5585 5583 5580 5578 5577 5575 5573 5572 5571 5570 5569 5569
5694 5684 5671 5662 5657 5652 5648 5660 5690 5687 5685 5681 5675 5671 5668 5664 5659 5655 5651 5646 5642 5637 5632 5627 5623 5619 5615 5611 5606 5601 5597 5594 5591 5588 5586 5583 5581 5579 5577 5575 5573 5571 5569 5567 5566 5565 5565 5564 5563